Miscellaneous Local Product
Issued by NWS North Platte, NE

Home | Current Version | Previous Version | Graphics & Text | Print | Product List | Glossary On
Versions: 1 2 3 4 5 6 7 8 9 10 11 12 13 14 15 16 17 18 19 20 21 22 23 24 25 26 27 28 29 30 31 32 33 34 35 36 37 38 39 40 41 42 43 44 45 46 47 48 49 50
000
AXUS43 KLBF 151110
MISLBF


WESTERN AND NORTH CENTRAL NEBRASKA HOURLY WEATHER ROUNDUP
NATIONAL WEATHER SERVICE NORTH PLATTE NE
500 AM CST FRI DEC 15 2017

NOTE: "FAIR" INDICATES FEW OR NO CLOUDS BELOW 12,000 FEET WITH NO
SIGNIFICANT WEATHER AND/OR OBSTRUCTIONS TO VISIBILITY.

NOTE: STATIONS NOT REPORTING VARIABLES SUCH AS SKY/WEATHER OR
PRESSURE ARE PROVIDED BY RAWS AND APRS NETWORKS AND ARE NOT UNDER
NATIONAL WEATHER SERVICE QUALITY CONTROL.

...OBSERVATIONS IN AND NEAR THE EASTERN PANHANDLE OF NEBRASKA...

CITY           SKY/WX    TMP DP  RH WIND       PRES   REMARKS
PINE RIDGE     CLOUDY    25  19  78 SW8       29.97F WCI  16
GORDON         FAIR      22  17  79 W9        29.96F WCI  12
CHADRON        CLOUDY    19  14  81 SW9       29.99F WCI   8
ALLIANCE       CLOUDY     8   6  92 W9        30.01F WCI  -5
SIDNEY         CLOUDY    17  13  84 W13       30.05F WCI   4
CRESCENT LAKE    N/A     17  13  86 SW6         N/A  WCI   9
$$

...OBSERVATIONS IN NORTHERN NEBRASKA AND FAR SOUTHERN SOUTH DAKOTA...

CITY           SKY/WX    TMP DP  RH WIND       PRES   REMARKS
WINNER         FAIR      28  22  78 SW8       29.97F WCI  20
VALENTINE      CLEAR     22  18  85 SW9       30.00F WCI  12
THEDFORD       PTCLDY    22  19  86 W5        30.02F WCI  16
AINSWORTH      PTCLDY    25  22  87 W6        30.00F WCI  18
O`NEILL        CLEAR     26  24  91 W9        30.02F WCI  17
ORD            CLOUDY    26  22  84 SW13      30.05F WCI  15
BROKEN BOW     CLEAR     21  17  84 SW8       30.06F WCI  11
VALENTINE NWR    N/A     23  19  83 SW7         N/A  WCI  15
HALSEY           N/A     22  17  81 SW6         N/A  WCI  15
BUTTE            N/A     25  22  87 W9          N/A  WCI  16
CHAMBERS         N/A     25  21  85 CALM        N/A
EWING            N/A     28  25  88 W6          N/A  WCI  22
$$

...OBSERVATIONS IN SOUTHWEST NEBRASKA AND FAR NORTHEAST COLORADO...

CITY           SKY/WX    TMP DP  RH WIND       PRES   REMARKS
WRAY           FAIR      16  12  86 W8        30.11F WCI   5
HOLYOKE        FAIR      21  18  86 W12       30.10F WCI   9
IMPERIAL       CLOUDY    18  14  84 W12       30.10F WCI   5
OGALLALA       CLOUDY    17  13  86 W13       30.07F WCI   4
NORTH PLATTE   CLOUDY    16  12  84 W6        30.08F WCI   7
MCCOOK         CLOUDY    16  14  92 W8        30.13F WCI   5
LEXINGTON      CLOUDY    20  17  88 W3        30.11F
STAPLETON        N/A     19  16  87 CALM        N/A
GOTHENBURG       N/A     21  16  79 CALM        N/A
CALLAWAY         N/A     23  20  87 W9          N/A  WCI  13
$$

...OBSERVATIONS IN CENTRAL LINCOLN COUNTY AREA...

CITY           SKY/WX    TMP DP  RH WIND       PRES   REMARKS
N.P. AIRPORT   CLOUDY    16  12  84 W6        30.08F WCI   7
N.P. DOWNTOWN    N/A     18  14  84 CALM        N/A
N.P. SOUTHEAST   N/A     18  13  81 CALM        N/A
N.P. HILLCREST   N/A     18  15  87 W3          N/A
$$

...SOME OBSERVATIONS FROM AROUND THE REGION...

CITY           SKY/WX    TMP DP  RH WIND       PRES   REMARKS
DENVER         CLOUDY    28   8  43 SW20      30.08F WCI  15
GRAND JUNCTION CLOUDY    20  12  71 SE13      30.37F WCI   7
LARAMIE        CLOUDY    19  10  68 W9        30.11F WCI   8
CHEYENNE       CLOUDY    31  12  45 W23       30.03F WCI  18
CASPER         CLOUDY    30  17  58 SW28G40   30.04F WCI  15
BISMARCK       MOCLDY    28  23  81 W5        29.88F WCI  23
RAPID CITY     CLOUDY    17  10  74 CALM      29.91F
PIERRE         CLOUDY    27  23  85 SW9       29.93F WCI  18
SIOUX FALLS    CLOUDY    32  28  85 W7        29.95F WCI  26
OMAHA          CLOUDY    34  25  69 SW10      30.08F WCI  26
GRAND ISLAND   CLEAR     26  22  84 W14       30.11F WCI  14
SCOTTSBLUFF    CLOUDY    11   8  88 NW7       30.04F WCI   0
KANSAS CITY    CLOUDY    33  28  81 NW7       30.13S WCI  27
HILL CITY      CLEAR     20  17  88 W6        30.18F WCI  12
WICHITA        PTCLDY    32  28  85 NW8       30.22S WCI  25
DODGE CITY     CLEAR     19  14  81 W9        30.21F WCI   8
OKLAHOMA CITY  CLEAR     32  27  81 NW12      30.25S WCI  23
DALLAS         PTCLDY    41  27  57 NW12      30.24R
AMARILLO       CLEAR     25  22  88 W8        30.28F WCI  16
$$




USA.gov is the U.S. government's official web portal to all federal, state and local government web resources and services.